DW4252 Weather Reports


time (UTC)temp
C
wind
direction
speed
KPH
gust
KPH
rain 1hr
cm
rain 24hr
cm
rain mn
cm
humidity
%
barometer
mb
20260506094006 14 9 11.3 17.7 0.00 0.00 0.00 55 1013.1
20260506093006 13 6 12.9 17.7 0.00 0.00 0.00 58 1013.1
20260506092006 13 2 11.3 17.7 0.00 0.00 0.00 57 1013.1
20260506091006 12 3 12.9 17.7 0.00 0.00 0.00 61 1012.9
20260506090006 11 353 14.5 20.9 0.00 0.00 0.00 65 1012.9
20260506085006 11 352 11.3 17.7 0.00 0.00 0.00 67 1013.0
20260506084006 11 358 12.9 22.5 0.00 0.00 0.00 65 1013.0
20260506083005 10 357 16.1 30.6 0.00 0.00 0.00 64 1013.0
20260506082006 10 357 16.1 24.1 0.00 0.00 0.00 65 1013.0
20260506081006 10 351 16.1 22.5 0.00 0.00 0.00 66 1012.9
20260506073006 10 4 11.3 16.1 0.00 0.00 0.00 69 1012.7
20260506061006 11 24 6.4 9.7 0.00 0.00 0.00 75 1012.4
20260506051006 8 6 12.9 19.3 0.00 0.00 0.00 81 1012.3
20260506045006 8 9 4.8 8.0 0.00 0.00 0.00 79 1012.2
20260506044006 8 13 4.8 6.4 0.00 0.00 0.00 79 1012.1
20260506042006 8 10 4.8 9.7 0.00 0.00 0.00 79 1012.1
20260506041006 8 11 8.0 11.3 0.00 0.00 0.00 79 1012.0
20260506040005 8 14 6.4 11.3 0.00 0.00 0.00 79 1012.1
20260506035005 8 17 6.4 9.7 0.00 0.00 0.00 79 1012.0
20260506034005 9 13 6.4 9.7 0.00 0.00 0.00 79 1011.9
20260506033005 9 15 6.4 11.3 0.00 0.00 0.00 78 1012.0
20260506032005 9 23 8.0 11.3 0.00 0.00 0.00 78 1012.0
20260506031005 9 23 9.7 12.9 0.00 0.00 0.00 77 1012.0
20260506025005 9 26 9.7 19.3 0.00 0.00 0.00 76 1012.1
20260506024005 9 17 11.3 19.3 0.00 0.00 0.00 76 1011.9
20260506023005 10 13 8.0 11.3 0.00 0.00 0.00 76 1012.2
20260506022005 10 22 8.0 14.5 0.00 0.00 0.00 76 1012.1
20260506021005 10 24 8.0 9.7 0.00 0.00 0.00 76 1012.1
20260506020005 10 25 8.0 16.1 0.00 0.00 0.00 76 1012.3
20260506015005 10 26 8.0 12.9 0.00 0.00 0.00 76 1012.3
20260506014005 10 21 11.3 17.7 0.00 0.00 0.00 76 1012.3
20260506013005 10 9 12.9 19.3 0.00 0.00 0.00 77 1012.2
20260506012005 10 3 12.9 19.3 0.00 0.00 0.00 78 1012.1
20260506010005 10 4 12.9 17.7 0.00 0.00 0.00 78 1012.2
20260506005005 10 8 8.0 16.1 0.00 0.00 0.00 77 1012.1
20260506004005 10 11 9.7 14.5 0.00 0.00 0.00 76 1012.3
20260506003005 11 18 8.0 12.9 0.00 0.00 0.00 76 1012.3
20260506000005 11 19 9.7 17.7 0.00 0.00 0.00 75 1012.5
20260505235005 11 18 8.0 11.3 0.00 0.00 0.00 74 1012.4
20260505234005 11 20 8.0 12.9 0.00 0.00 0.00 74 1012.5
20260505232005 11 34 8.0 12.9 0.00 0.00 0.00 73 1012.4
20260505231005 11 40 8.0 14.5 0.00 0.00 0.00 73 1012.6
20260505230012 11 49 9.7 14.5 0.00 0.00 0.00 70 1012.6
20260505225005 11 47 9.7 17.7 0.00 0.00 0.00 68 1012.5
20260505224005 11 46 8.0 12.9 0.00 0.00 0.00 66 1012.5
20260505223006 11 49 12.9 22.5 0.00 0.00 0.00 66 1012.5
20260505222005 11 47 12.9 20.9 0.00 0.00 0.00 65 1012.5
20260505221004 12 61 8.0 9.7 0.00 0.00 0.00 60 1012.5
20260505214005 12 78 8.0 12.9 0.00 0.00 0.00 57 1012.6
20260505213005 12 78 11.3 17.7 0.00 0.00 0.00 57 1012.4
20260505212005 12 77 12.9 19.3 0.00 0.00 0.00 56 1012.4
20260505211005 12 80 12.9 17.7 0.00 0.00 0.00 57 1012.5
20260505210006 12 77 9.7 17.7 0.00 0.00 0.00 60 1012.4
20260505205005 13 79 8.0 11.3 0.00 0.00 0.00 62 1012.3
20260505204005 13 74 9.7 17.7 0.00 0.00 0.00 61 1012.2
20260505202006 13 56 9.7 17.7 0.00 0.00 0.00 60 1012.0
20260505201005 13 42 8.0 12.9 0.00 0.00 0.00 59 1012.0
20260505200005 13 50 4.8 8.0 0.00 0.00 0.00 59 1011.9
20260505195005 13 47 3.2 6.4 0.00 0.00 0.00 58 1011.8
20260505194005 14 49 4.8 9.7 0.00 0.00 0.00 57 1011.4
20260505193005 14 48 6.4 11.3 0.00 0.00 0.00 56 1011.6
20260505192006 14 38 6.4 9.7 0.00 0.00 0.00 56 1011.3
20260505191006 14 39 4.8 8.0 0.00 0.00 0.00 56 1011.4
20260505190006 14 48 3.2 6.4 0.00 0.00 0.00 55 1011.4
20260505185006 15 46 6.4 8.0 0.00 0.00 0.00 55 1011.4
20260505184005 15 49 8.0 11.3 0.00 0.00 0.00 54 1011.4
20260505183006 15 51 8.0 12.9 0.00 0.00 0.00 53 1011.3
20260505182006 15 42 8.0 12.9 0.00 0.00 0.00 53 1011.3
20260505180007 15 40 8.0 9.7 0.00 0.00 0.00 51 1011.2
20260505175006 15 33 6.4 9.7 0.00 0.00 0.00 50 1011.3
20260505174006 15 44 6.4 9.7 0.00 0.00 0.00 49 1011.4
20260505173006 15 58 8.0 14.5 0.00 0.00 0.00 48 1011.4
20260505172006 15 58 8.0 11.3 0.00 0.00 0.00 47 1011.4
20260505171006 15 58 11.3 17.7 0.00 0.00 0.00 47 1011.5
20260505170006 15 51 12.9 17.7 0.00 0.00 0.00 46 1011.5
20260505165006 15 46 11.3 17.7 0.00 0.00 0.00 46 1011.7
20260505164006 15 46 11.3 16.1 0.00 0.00 0.00 46 1011.5
20260505163008 16 50 11.3 16.1 0.00 0.00 0.00 45 1011.6
20260505162006 16 50 12.9 19.3 0.00 0.00 0.00 45 1011.7
20260505161007 16 49 11.3 17.7 0.00 0.00 0.00 45 1011.6
20260505153006 16 55 14.5 22.5 0.00 0.00 0.00 45 1011.6
20260505152007 16 47 16.1 25.7 0.00 0.00 0.00 45 1011.4
20260505151007 16 51 16.1 25.7 0.00 0.00 0.00 44 1011.5
20260505125006 17 58 17.7 27.4 0.00 0.00 0.00 46 1012.0
20260505124006 17 48 14.5 22.5 0.00 0.00 0.00 48 1011.9
20260505123006 17 44 14.5 24.1 0.00 0.00 0.00 48 1011.9
20260505122006 17 38 17.7 24.1 0.00 0.00 0.00 46 1012.0
20260505121007 17 33 11.3 17.7 0.00 0.00 0.00 48 1012.1
20260505120006 17 38 12.9 17.7 0.00 0.00 0.00 49 1012.0
20260505115006 17 34 11.3 19.3 0.00 0.00 0.00 53 1011.8
20260505114006 17 25 9.7 17.7 0.00 0.00 0.00 53 1011.9
20260505113006 17 22 12.9 19.3 0.00 0.00 0.00 54 1012.0
20260505112006 16 13 12.9 19.3 0.00 0.00 0.00 58 1012.1
20260505111006 16 12 14.5 19.3 0.00 0.00 0.00 58 1012.3
20260505102007 17 8 16.1 20.9 0.00 0.00 0.00 54 1012.3
20260505101006 17 6 12.9 20.9 0.00 0.00 0.00 55 1012.2
20260505100006 16 12 16.1 25.7 0.00 0.00 0.00 63 1012.4
20260505095007 15 15 16.1 22.5 0.00 0.00 0.00 63 1012.3